Flag for U.S.A. Weather past 2 weeks in Anchorage, Alaska, U.S.A.

Now
57 °F

Heavy rain. Fog.


Feels Like: 55 °F
Forecast: 53 / 69 °F
Wind: 9 mph from Northwest

Location: Lake Hood Seaplane

Current Time: Jul 28, 2014 at 5:42:12 PM

Latest Report: Jul 28, 2014 at 4:53 PM


Visibility: 2 mi

Pressure: 30.01 "Hg

Humidity: 87%

Dew point: 53 °F

Location of AnchorageLocation

Historic Weather in Anchorage — Graph

°F

Anchorage temperature yesterday

Maximum temperature yesterday: 69 °F (at 2:53 PM)
Minimum temperature yesterday: 51 °F (at 6:53 AM)
Average temperature yesterday: 61 °F

Past Weeks' High & Low Weather Summary

 TemperatureHumidityPressure
High71 °F (Jul 21, 6:53 PM)90% (Jul 21, 1:53 AM)30.34 "Hg (Jul 21, 1:53 AM)
Low51 °F (Jul 27, 6:53 AM)31% (Jul 21, 6:53 PM)29.58 "Hg (Jul 19, 7:53 PM)
Average61 °F66%29.95 "Hg
* Reported Jul 13 3:53 PM — Jul 28 3:53 PM, Anchorage, Weather by CustomWeather, © 2014

Note: Actual official high and low records may vary slightly from our data, if they occured in-between our weather recording intervals... More about our weather records

Advertising

Anchorage weather history for previous 24 hours

 ConditionsComfort  
Time TempWeatherWind HumidityBarometerVisibility
3:53 PM
Jul 28
63 °FLight rain. Mostly cloudy.3 mph60%30.00 "Hg10 mi
2:53 PM64 °FMostly cloudy.6 mph56%30.00 "Hg10 mi
1:53 PM64 °FPartly sunny.3 mph52%30.01 "Hg10 mi
12:53 PM64 °FOvercast.8 mph54%30.02 "Hg10 mi
11:53 AM64 °FPartly sunny.6 mph52%30.04 "Hg10 mi
10:53 AM61 °FPassing clouds.8 mph65%30.05 "Hg10 mi
9:53 AM61 °FOvercast.12 mph67%30.05 "Hg10 mi
8:53 AM62 °FOvercast.12 mph58%30.04 "Hg10 mi
7:53 AM60 °FPassing clouds.9 mph62%30.05 "Hg10 mi
6:53 AM59 °FSunny.10 mph62%30.05 "Hg10 mi
5:53 AM59 °FClear.7 mph62%30.06 "Hg10 mi
4:53 AM59 °FPartly cloudy.8 mph62%30.05 "Hg10 mi
3:53 AM60 °FPassing clouds.6 mph56%30.05 "Hg10 mi
2:53 AM60 °FOvercast.7 mph58%30.05 "Hg10 mi
1:53 AM60 °FPassing clouds.8 mph60%30.04 "Hg10 mi
12:53 AM60 °FPassing clouds.7 mph58%30.03 "Hg10 mi
11:53 PM
Jul 27
60 °FPassing clouds.7 mph60%30.03 "Hg10 mi
10:53 PM61 °FPartly sunny.9 mph58%30.02 "Hg10 mi
9:53 PM62 °FPartly sunny.6 mph60%30.01 "Hg10 mi
8:53 PM63 °FMostly cloudy.8 mph56%30.00 "Hg10 mi
7:53 PM64 °FOvercast.6 mph58%29.98 "Hg10 mi
6:53 PM66 °FOvercast.9 mph54%29.98 "Hg10 mi
5:53 PM64 °FOvercast.6 mph58%29.97 "Hg10 mi
Weather by CustomWeather, © 2014

See weather overviewHow to use our weather pages